| time (UTC) | temp F | wind direction | speed MPH | gust MPH | rain 1hr in | rain 24hr in | rain mn in | humidity % | barometer mb |
| 20260506002557 | 52 | 217 | 4.0 | 7.0 | 0.00 | 0.34 | 0.00 | 91 | 1007.7 |
| 20260506002050 | 52 | 216 | 4.0 | 9.0 | 0.00 | 0.34 | 0.00 | 92 | 1007.8 |
| 20260506001549 | 52 | 246 | 4.0 | 9.0 | 0.00 | 0.34 | 0.00 | 92 | 1007.8 |
| 20260506001240 | 52 | 189 | 1.0 | 4.0 | 0.00 | 0.34 | 0.00 | 92 | 1007.8 |
| 20260506001105 | 52 | 212 | 2.0 | 8.0 | 0.00 | 0.34 | 0.00 | 92 | 1007.9 |
| 20260506000057 | 52 | 223 | 1.0 | 3.0 | 0.00 | 0.34 | 0.00 | 92 | 1007.8 |
| 20260505234545 | 52 | 241 | 3.0 | 6.0 | 0.00 | 0.34 | 0.00 | 92 | 1007.9 |
| 20260505234040 | 52 | 241 | 3.0 | 6.0 | 0.00 | 0.34 | 0.00 | 92 | 1008.0 |
| 20260505233543 | 52 | 231 | 2.0 | 5.0 | 0.00 | 0.34 | 0.00 | 92 | 1008.0 |
| 20260505233159 | 52 | 240 | 2.0 | 5.0 | 0.00 | 0.34 | 0.00 | 93 | 1007.9 |
| 20260505233101 | 52 | 264 | 2.0 | 5.0 | 0.00 | 0.34 | 0.00 | 92 | 1007.9 |
| 20260505232037 | 52 | 238 | 2.0 | 5.0 | 0.00 | 0.34 | 0.00 | 93 | 1007.9 |
| 20260505231534 | 52 | 227 | 2.0 | 5.0 | 0.00 | 0.34 | 0.00 | 93 | 1007.9 |
| 20260505231034 | 52 | 248 | 2.0 | 4.0 | 0.00 | 0.34 | 0.00 | 93 | 1007.9 |
| 20260505230712 | 52 | 239 | 1.0 | 4.0 | 0.00 | 0.34 | 0.00 | 93 | 1007.9 |
| 20260505230603 | 51 | 257 | 2.0 | 4.0 | 0.00 | 0.34 | 0.00 | 93 | 1007.9 |
| 20260505225529 | 52 | 217 | 1.0 | 3.0 | 0.00 | 0.34 | 0.00 | 93 | 1007.9 |
| 20260505225034 | 52 | 217 | 1.0 | 4.0 | 0.00 | 0.34 | 0.00 | 93 | 1008.0 |
| 20260505224536 | 52 | 217 | 0.0 | 4.0 | 0.00 | 0.34 | 0.00 | 93 | 1007.9 |
| 20260505224025 | 51 | 217 | 0.0 | 2.0 | 0.00 | 0.34 | 0.00 | 93 | 1007.9 |
| 20260505223517 | 51 | 217 | 0.0 | 1.0 | 0.00 | 0.34 | 0.00 | 93 | 1007.9 |
| 20260505223014 | 51 | 217 | 0.0 | 1.0 | 0.00 | 0.34 | 0.00 | 93 | 1008.0 |
| 20260505222516 | 51 | 217 | 0.0 | 1.0 | 0.00 | 0.34 | 0.00 | 93 | 1007.9 |
| 20260505222011 | 51 | 217 | 0.0 | 1.0 | 0.00 | 0.34 | 0.00 | 93 | 1007.9 |
| 20260505221518 | 51 | 217 | 0.0 | 0.0 | 0.00 | 0.34 | 0.00 | 93 | 1007.9 |
| 20260505221112 | 51 | 217 | 0.0 | 1.0 | 0.00 | 0.34 | 0.00 | 93 | 1007.9 |
| 20260505221029 | 51 | 217 | 0.0 | 0.0 | 0.00 | 0.34 | 0.00 | 93 | 1007.8 |
| 20260505220006 | 51 | 217 | 0.0 | 1.0 | 0.00 | 0.34 | 0.00 | 93 | 1008.0 |
| 20260505215502 | 51 | 217 | 0.0 | 2.0 | 0.00 | 0.34 | 0.34 | 93 | 1008.0 |
| 20260505215009 | 51 | 217 | 1.0 | 2.0 | 0.00 | 0.34 | 0.34 | 93 | 1008.0 |
| 20260505214510 | 51 | 217 | 1.0 | 2.0 | 0.00 | 0.34 | 0.34 | 93 | 1008.1 |
| 20260505214002 | 51 | 217 | 1.0 | 3.0 | 0.00 | 0.34 | 0.34 | 93 | 1008.1 |
| 20260505213624 | 51 | 217 | 1.0 | 3.0 | 0.00 | 0.34 | 0.34 | 93 | 1008.1 |
| 20260505213049 | 51 | 217 | 1.0 | 3.0 | 0.00 | 0.34 | 0.34 | 93 | 1008.1 |
| 20260505212016 | 51 | 322 | 0.0 | 2.0 | 0.00 | 0.34 | 0.34 | 93 | 1008.1 |
| 20260505211616 | 51 | 322 | 0.0 | 0.0 | 0.00 | 0.34 | 0.34 | 93 | 1008.3 |
| 20260505211528 | 51 | 322 | 0.0 | 2.0 | 0.00 | 0.34 | 0.34 | 93 | 1008.2 |
| 20260505210517 | 51 | 322 | 0.0 | 1.0 | 0.00 | 0.34 | 0.34 | 93 | 1008.2 |
| 20260505210400 | 51 | 322 | 0.0 | 2.0 | 0.00 | 0.34 | 0.34 | 92 | 1008.1 |
| 20260505210343 | 52 | 322 | 0.0 | 2.0 | 0.00 | 0.34 | 0.34 | 93 | 1008.2 |
| 20260505210331 | 51 | 322 | 0.0 | 2.0 | 0.00 | 0.34 | 0.34 | 92 | 1008.2 |
| 20260505210123 | 51 | 322 | 0.0 | 1.0 | 0.00 | 0.34 | 0.34 | 92 | 1008.2 |
| 20260505203704 | 51 | 322 | 0.0 | 1.0 | 0.00 | 0.34 | 0.34 | 92 | 1008.1 |
| 20260505203636 | 52 | 322 | 0.0 | 1.0 | 0.00 | 0.34 | 0.34 | 92 | 1008.1 |
| 20260505201949 | 52 | 322 | 0.0 | 1.0 | 0.00 | 0.34 | 0.34 | 92 | 1008.1 |
| 20260505201447 | 52 | 322 | 0.0 | 0.0 | 0.00 | 0.34 | 0.34 | 92 | 1008.0 |
| 20260505200948 | 52 | 322 | 0.0 | 0.0 | 0.00 | 0.34 | 0.34 | 91 | 1008.0 |
| 20260505200446 | 52 | 322 | 0.0 | 1.0 | 0.00 | 0.34 | 0.34 | 91 | 1007.9 |
| 20260505195944 | 52 | 322 | 0.0 | 1.0 | 0.00 | 0.34 | 0.34 | 91 | 1007.8 |
| 20260505195443 | 52 | 322 | 0.0 | 1.0 | 0.00 | 0.34 | 0.34 | 91 | 1007.6 |
| 20260505194937 | 52 | 322 | 0.0 | 1.0 | 0.00 | 0.34 | 0.34 | 90 | 1007.6 |
| 20260505194443 | 52 | 322 | 0.0 | 2.0 | 0.00 | 0.34 | 0.34 | 90 | 1007.6 |
| 20260505193607 | 53 | 309 | 2.0 | 6.0 | 0.00 | 0.34 | 0.34 | 90 | 1007.3 |
| 20260505191930 | 53 | 303 | 3.0 | 9.0 | 0.01 | 0.34 | 0.34 | 90 | 1007.3 |
| 20260505191430 | 53 | 337 | 4.0 | 9.0 | 0.02 | 0.34 | 0.34 | 90 | 1007.3 |
| 20260505191216 | 53 | 308 | 4.0 | 9.0 | 0.04 | 0.34 | 0.34 | 90 | 1007.4 |
| 20260505191016 | 53 | 334 | 4.0 | 9.0 | 0.03 | 0.34 | 0.34 | 90 | 1007.3 |
| 20260505185931 | 53 | 329 | 4.0 | 11.0 | 0.06 | 0.34 | 0.34 | 90 | 1007.2 |
| 20260505185424 | 53 | 327 | 4.0 | 11.0 | 0.09 | 0.34 | 0.34 | 89 | 1007.3 |
| 20260505184918 | 53 | 323 | 4.0 | 9.0 | 0.14 | 0.34 | 0.34 | 89 | 1007.4 |
| 20260505184521 | 53 | 305 | 3.0 | 9.0 | 0.21 | 0.34 | 0.34 | 89 | 1007.6 |
| 20260505183939 | 53 | 329 | 1.0 | 5.0 | 0.31 | 0.34 | 0.34 | 90 | 1007.8 |
| 20260505183038 | 53 | 36 | 0.0 | 7.0 | 0.33 | 0.33 | 0.33 | 89 | 1008.0 |
| 20260505182926 | 53 | 337 | 0.0 | 7.0 | 0.33 | 0.33 | 0.33 | 89 | 1008.1 |
| 20260505181911 | 53 | 39 | 2.0 | 8.0 | 0.33 | 0.33 | 0.33 | 88 | 1007.9 |
| 20260505181409 | 54 | 288 | 5.0 | 12.0 | 0.32 | 0.32 | 0.31 | 88 | 1007.9 |
| 20260505180906 | 54 | 289 | 7.0 | 12.0 | 0.31 | 0.31 | 0.31 | 87 | 1007.8 |
| 20260505180405 | 54 | 264 | 8.0 | 21.0 | 0.30 | 0.30 | 0.29 | 87 | 1007.8 |
| 20260505175905 | 54 | 265 | 8.0 | 21.0 | 0.28 | 0.28 | 0.27 | 86 | 1007.9 |
| 20260505175405 | 54 | 258 | 9.0 | 18.0 | 0.24 | 0.24 | 0.24 | 85 | 1007.7 |
| 20260505174903 | 55 | 286 | 9.0 | 18.0 | 0.19 | 0.19 | 0.17 | 83 | 1007.6 |
| 20260505174802 | 57 | 241 | 9.0 | 22.0 | 0.03 | 0.03 | 0.02 | 78 | 1007.9 |
| 20260505174757 | 59 | 173 | 9.0 | 22.0 | 0.00 | 0.00 | 0.00 | 72 | 1007.8 |
| 20260505174506 | 56 | 247 | 9.0 | 19.0 | 0.13 | 0.13 | 0.10 | 81 | 1007.7 |
| 20260505172904 | 62 | 277 | 6.0 | 20.0 | 0.00 | 0.00 | 0.00 | 65 | 1007.8 |
| 20260505172402 | 62 | 241 | 1.0 | 7.0 | 0.00 | 0.00 | 0.00 | 67 | 1006.9 |
| 20260505171903 | 63 | 322 | 1.0 | 5.0 | 0.00 | 0.00 | 0.00 | 67 | 1006.5 |
| 20260505171403 | 63 | 326 | 2.0 | 6.0 | 0.00 | 0.00 | 0.00 | 67 | 1006.5 |
| 20260505170904 | 63 | 352 | 2.0 | 6.0 | 0.00 | 0.00 | 0.00 | 67 | 1006.4 |
| 20260505170359 | 63 | 331 | 1.0 | 4.0 | 0.00 | 0.00 | 0.00 | 67 | 1006.4 |
| 20260505165852 | 64 | 332 | 1.0 | 5.0 | 0.00 | 0.00 | 0.00 | 67 | 1006.3 |
| 20260505164848 | 64 | 347 | 2.0 | 5.0 | 0.00 | 0.00 | 0.00 | 66 | 1006.4 |
| 20260505164348 | 64 | 28 | 2.0 | 8.0 | 0.00 | 0.00 | 0.00 | 67 | 1006.4 |
| 20260505163842 | 64 | 51 | 2.0 | 8.0 | 0.00 | 0.00 | 0.00 | 67 | 1006.4 |
| 20260505163551 | 64 | 44 | 3.0 | 9.0 | 0.00 | 0.00 | 0.00 | 67 | 1006.6 |
| 20260505163415 | 64 | 35 | 2.0 | 9.0 | 0.00 | 0.00 | 0.00 | 68 | 1006.5 |
| 20260505162342 | 64 | 1 | 3.0 | 9.0 | 0.00 | 0.00 | 0.00 | 66 | 1006.7 |
| 20260505161938 | 65 | 30 | 5.0 | 15.0 | 0.00 | 0.00 | 0.00 | 66 | 1006.8 |
| 20260505161903 | 64 | 37 | 5.0 | 12.0 | 0.00 | 0.00 | 0.00 | 66 | 1006.7 |
| 20260505161526 | 65 | 56 | 6.0 | 15.0 | 0.00 | 0.00 | 0.00 | 66 | 1006.7 |
| 20260505160410 | 65 | 22 | 5.0 | 13.0 | 0.00 | 0.00 | 0.00 | 66 | 1006.8 |
| 20260505153335 | 65 | 16 | 3.0 | 8.0 | 0.00 | 0.00 | 0.00 | 67 | 1006.9 |
| 20260505152833 | 65 | 77 | 4.0 | 7.0 | 0.00 | 0.00 | 0.00 | 67 | 1007.0 |
| 20260505152328 | 65 | 48 | 4.0 | 9.0 | 0.00 | 0.00 | 0.00 | 68 | 1007.1 |
| 20260505152052 | 65 | 39 | 2.0 | 9.0 | 0.00 | 0.00 | 0.00 | 68 | 1007.1 |
| 20260505151901 | 65 | 18 | 3.0 | 9.0 | 0.00 | 0.00 | 0.00 | 68 | 1007.1 |
| 20260505151119 | 65 | 44 | 4.0 | 12.0 | 0.00 | 0.00 | 0.00 | 66 | 1007.2 |
| 20260505150907 | 65 | 342 | 4.0 | 12.0 | 0.00 | 0.00 | 0.00 | 67 | 1007.2 |
| 20260505140310 | 66 | 338 | 2.0 | 9.0 | 0.00 | 0.00 | 0.00 | 62 | 1007.4 |
| 20260505124809 | 68 | 332 | 3.0 | 14.0 | 0.00 | 0.00 | 0.00 | 58 | 1008.0 |
| 20260505124433 | 68 | 313 | 4.0 | 11.0 | 0.00 | 0.00 | 0.00 | 58 | 1008.0 |
| 20260505124334 | 69 | 338 | 3.0 | 10.0 | 0.00 | 0.00 | 0.00 | 59 | 1008.0 |
| 20260505123302 | 67 | 328 | 5.0 | 11.0 | 0.00 | 0.00 | 0.00 | 58 | 1008.0 |
| 20260505122803 | 67 | 320 | 4.0 | 10.0 | 0.00 | 0.00 | 0.00 | 58 | 1008.0 |
| 20260505122305 | 67 | 335 | 4.0 | 9.0 | 0.00 | 0.00 | 0.00 | 59 | 1008.0 |
| 20260505121802 | 67 | 326 | 4.0 | 13.0 | 0.00 | 0.00 | 0.00 | 59 | 1008.1 |
| 20260505121301 | 67 | 333 | 4.0 | 13.0 | 0.00 | 0.00 | 0.00 | 59 | 1008.1 |
| 20260505120802 | 68 | 13 | 3.0 | 11.0 | 0.00 | 0.00 | 0.00 | 59 | 1008.1 |
| 20260505120310 | 68 | 318 | 3.0 | 13.0 | 0.00 | 0.00 | 0.00 | 60 | 1008.1 |
| 20260505115802 | 68 | 2 | 5.0 | 13.0 | 0.00 | 0.00 | 0.00 | 58 | 1008.2 |
| 20260505115556 | 69 | 330 | 6.0 | 13.0 | 0.00 | 0.00 | 0.00 | 57 | 1008.2 |
| 20260505115346 | 68 | 326 | 7.0 | 13.0 | 0.00 | 0.00 | 0.00 | 57 | 1008.1 |
| 20260505114303 | 69 | 317 | 4.0 | 12.0 | 0.00 | 0.00 | 0.00 | 57 | 1008.2 |
| 20260505113801 | 70 | 323 | 2.0 | 7.0 | 0.00 | 0.00 | 0.00 | 56 | 1008.3 |
| 20260505113302 | 69 | 43 | 2.0 | 7.0 | 0.00 | 0.00 | 0.00 | 52 | 1008.2 |
| 20260505112758 | 69 | 42 | 3.0 | 8.0 | 0.00 | 0.00 | 0.00 | 51 | 1008.3 |
| 20260505112258 | 69 | 49 | 2.0 | 8.0 | 0.00 | 0.00 | 0.00 | 54 | 1008.4 |
| 20260505111803 | 68 | 22 | 1.0 | 5.0 | 0.00 | 0.00 | 0.00 | 56 | 1008.4 |
| 20260505111256 | 68 | 348 | 2.0 | 6.0 | 0.00 | 0.00 | 0.00 | 58 | 1008.4 |
| 20260505110757 | 67 | 32 | 2.0 | 10.0 | 0.00 | 0.00 | 0.00 | 59 | 1008.4 |
| 20260505110257 | 67 | 29 | 3.0 | 10.0 | 0.00 | 0.00 | 0.00 | 58 | 1008.4 |
| 20260505110230 | 68 | 351 | 3.0 | 9.0 | 0.00 | 0.00 | 0.00 | 59 | 1008.5 |
| 20260505101236 | 68 | 89 | 4.0 | 7.0 | 0.00 | 0.00 | 0.00 | 55 | 1008.9 |
| 20260505100736 | 67 | 44 | 4.0 | 8.0 | 0.00 | 0.00 | 0.00 | 56 | 1008.9 |
| 20260505100233 | 67 | 108 | 5.0 | 9.0 | 0.00 | 0.00 | 0.00 | 57 | 1009.0 |
| 20260505095731 | 67 | 76 | 5.0 | 11.0 | 0.00 | 0.00 | 0.00 | 57 | 1009.1 |
| 20260505095232 | 67 | 69 | 4.0 | 11.0 | 0.00 | 0.00 | 0.00 | 59 | 1009.0 |
| 20260505094735 | 67 | 80 | 2.0 | 8.0 | 0.00 | 0.00 | 0.00 | 58 | 1009.1 |
| 20260505094233 | 67 | 31 | 3.0 | 6.0 | 0.00 | 0.00 | 0.00 | 61 | 1009.1 |
| 20260505093729 | 66 | 94 | 4.0 | 8.0 | 0.00 | 0.00 | 0.00 | 58 | 1009.2 |
| 20260505093229 | 66 | 100 | 4.0 | 9.0 | 0.00 | 0.00 | 0.00 | 60 | 1009.3 |
| 20260505092734 | 66 | 106 | 3.0 | 9.0 | 0.00 | 0.00 | 0.00 | 60 | 1009.3 |
| 20260505092236 | 66 | 62 | 3.0 | 9.0 | 0.00 | 0.00 | 0.00 | 60 | 1009.3 |
| 20260505091729 | 66 | 70 | 3.0 | 9.0 | 0.00 | 0.00 | 0.00 | 61 | 1009.4 |
| 20260505091232 | 65 | 99 | 3.0 | 9.0 | 0.00 | 0.00 | 0.00 | 62 | 1009.4 |
| 20260505090734 | 65 | 90 | 3.0 | 8.0 | 0.00 | 0.00 | 0.00 | 61 | 1009.5 |
| 20260505090317 | 65 | 92 | 4.0 | 9.0 | 0.00 | 0.00 | 0.00 | 62 | 1009.5 |
| 20260505085936 | 65 | 64 | 4.0 | 9.0 | 0.00 | 0.00 | 0.00 | 63 | 1009.7 |
| 20260505085333 | 65 | 91 | 3.0 | 7.0 | 0.00 | 0.00 | 0.00 | 63 | 1009.8 |
| 20260505084218 | 64 | 124 | 2.0 | 5.0 | 0.00 | 0.00 | 0.00 | 67 | 1009.9 |
| 20260505083716 | 63 | 96 | 1.0 | 4.0 | 0.00 | 0.00 | 0.00 | 69 | 1009.8 |
| 20260505083216 | 63 | 145 | 2.0 | 5.0 | 0.00 | 0.00 | 0.00 | 69 | 1009.9 |
| 20260505082713 | 63 | 113 | 3.0 | 6.0 | 0.00 | 0.00 | 0.00 | 68 | 1009.9 |
| 20260505082216 | 63 | 80 | 3.0 | 6.0 | 0.00 | 0.00 | 0.00 | 70 | 1009.9 |
| 20260505081713 | 62 | 124 | 3.0 | 7.0 | 0.00 | 0.00 | 0.00 | 71 | 1009.9 |
| 20260505081216 | 62 | 146 | 2.0 | 7.0 | 0.00 | 0.00 | 0.00 | 70 | 1010.0 |
| 20260505080713 | 62 | 114 | 2.0 | 4.0 | 0.00 | 0.00 | 0.00 | 72 | 1010.0 |
| 20260505080207 | 61 | 58 | 2.0 | 4.0 | 0.00 | 0.00 | 0.00 | 73 | 1010.1 |
| 20260505075706 | 61 | 90 | 2.0 | 4.0 | 0.00 | 0.00 | 0.00 | 73 | 1010.1 |
| 20260505075207 | 62 | 62 | 1.0 | 4.0 | 0.00 | 0.00 | 0.00 | 73 | 1010.1 |
| 20260505074706 | 61 | 347 | 1.0 | 4.0 | 0.00 | 0.00 | 0.00 | 73 | 1010.2 |
| 20260505073713 | 60 | 61 | 2.0 | 6.0 | 0.00 | 0.00 | 0.00 | 77 | 1010.2 |
| 20260505073207 | 60 | 317 | 1.0 | 4.0 | 0.00 | 0.00 | 0.00 | 75 | 1010.2 |
| 20260505072709 | 60 | 329 | 2.0 | 5.0 | 0.00 | 0.00 | 0.00 | 78 | 1010.3 |
| 20260505072214 | 59 | 305 | 1.0 | 5.0 | 0.00 | 0.00 | 0.00 | 78 | 1010.4 |
| 20260505071702 | 59 | 18 | 1.0 | 5.0 | 0.00 | 0.00 | 0.00 | 80 | 1010.4 |
| 20260505071205 | 58 | 331 | 2.0 | 6.0 | 0.00 | 0.00 | 0.00 | 80 | 1010.4 |
| 20260505070659 | 58 | 326 | 3.0 | 6.0 | 0.00 | 0.00 | 0.00 | 80 | 1010.4 |
| 20260505070158 | 57 | 307 | 2.0 | 4.0 | 0.00 | 0.00 | 0.00 | 81 | 1010.5 |
| 20260505065651 | 57 | 326 | 1.0 | 4.0 | 0.00 | 0.00 | 0.00 | 81 | 1010.5 |
| 20260505065252 | 57 | 331 | 2.0 | 5.0 | 0.00 | 0.00 | 0.00 | 81 | 1010.5 |
| 20260505065204 | 57 | 331 | 1.0 | 4.0 | 0.00 | 0.00 | 0.00 | 81 | 1010.4 |
| 20260505064145 | 57 | 328 | 2.0 | 5.0 | 0.00 | 0.00 | 0.00 | 81 | 1010.5 |
| 20260505063644 | 56 | 327 | 1.0 | 5.0 | 0.00 | 0.00 | 0.00 | 81 | 1010.6 |
| 20260505063143 | 57 | 335 | 1.0 | 4.0 | 0.00 | 0.00 | 0.00 | 82 | 1010.6 |
| 20260505062648 | 56 | 328 | 1.0 | 5.0 | 0.00 | 0.00 | 0.00 | 82 | 1010.6 |
| 20260505062145 | 56 | 67 | 1.0 | 5.0 | 0.00 | 0.00 | 0.00 | 82 | 1010.7 |
| 20260505061643 | 56 | 325 | 1.0 | 5.0 | 0.00 | 0.00 | 0.00 | 83 | 1010.7 |
| 20260505061531 | 56 | 336 | 1.0 | 4.0 | 0.00 | 0.00 | 0.00 | 83 | 1010.7 |
| 20260505061524 | 56 | 333 | 1.0 | 5.0 | 0.00 | 0.00 | 0.00 | 83 | 1010.8 |
| 20260505061449 | 56 | 253 | 1.0 | 5.0 | 0.00 | 0.00 | 0.00 | 82 | 1010.8 |
| 20260505061307 | 56 | 21 | 0.0 | 3.0 | 0.00 | 0.00 | 0.00 | 82 | 1010.7 |
| 20260505054907 | 56 | 328 | 1.0 | 5.0 | 0.00 | 0.00 | 0.00 | 82 | 1010.7 |
| 20260505053129 | 55 | 286 | 1.0 | 6.0 | 0.00 | 0.00 | 0.00 | 84 | 1010.6 |
| 20260505052630 | 55 | 325 | 1.0 | 7.0 | 0.00 | 0.00 | 0.00 | 85 | 1010.6 |
| 20260505052132 | 55 | 323 | 2.0 | 7.0 | 0.00 | 0.00 | 0.00 | 84 | 1010.6 |
| 20260505051630 | 55 | 17 | 1.0 | 6.0 | 0.00 | 0.00 | 0.00 | 84 | 1010.5 |
| 20260505051130 | 55 | 333 | 1.0 | 3.0 | 0.00 | 0.00 | 0.00 | 85 | 1010.6 |
| 20260505050619 | 55 | 327 | 0.0 | 5.0 | 0.00 | 0.00 | 0.00 | 85 | 1010.6 |
| 20260505050114 | 54 | 326 | 0.0 | 5.0 | 0.00 | 0.00 | 0.00 | 86 | 1010.6 |
| 20260505041108 | 54 | 321 | 7.0 | 12.0 | 0.00 | 0.00 | 0.00 | 84 | 1010.7 |
| 20260505040755 | 54 | 326 | 8.0 | 13.0 | 0.00 | 0.00 | 0.00 | 84 | 1010.8 |
| 20260505040637 | 54 | 324 | 8.0 | 13.0 | 0.00 | 0.00 | 0.00 | 84 | 1010.8 |
| 20260505035604 | 54 | 315 | 7.0 | 14.0 | 0.00 | 0.00 | 0.00 | 84 | 1010.8 |
| 20260505035107 | 54 | 333 | 6.0 | 14.0 | 0.00 | 0.00 | 0.00 | 84 | 1010.8 |
| 20260505034601 | 54 | 331 | 5.0 | 13.0 | 0.00 | 0.00 | 0.00 | 84 | 1010.8 |
| 20260505034237 | 54 | 335 | 4.0 | 10.0 | 0.00 | 0.00 | 0.00 | 83 | 1011.0 |
| 20260505034137 | 54 | 333 | 4.0 | 10.0 | 0.00 | 0.00 | 0.00 | 84 | 1010.9 |
| 20260505033103 | 55 | 323 | 3.0 | 9.0 | 0.00 | 0.00 | 0.00 | 83 | 1011.1 |
| 20260505032603 | 55 | 317 | 4.0 | 10.0 | 0.00 | 0.00 | 0.00 | 82 | 1011.0 |
| 20260505032101 | 55 | 330 | 5.0 | 11.0 | 0.00 | 0.00 | 0.00 | 82 | 1011.0 |
| 20260505031602 | 55 | 326 | 6.0 | 12.0 | 0.00 | 0.00 | 0.00 | 82 | 1011.0 |
| 20260505031105 | 55 | 325 | 7.0 | 13.0 | 0.00 | 0.00 | 0.00 | 81 | 1011.0 |
| 20260505030605 | 55 | 319 | 8.0 | 13.0 | 0.00 | 0.00 | 0.00 | 81 | 1011.0 |
| 20260505030111 | 55 | 334 | 7.0 | 13.0 | 0.00 | 0.00 | 0.00 | 81 | 1011.0 |
| 20260505025817 | 55 | 322 | 8.0 | 12.0 | 0.00 | 0.00 | 0.00 | 81 | 1011.1 |
| 20260505025654 | 55 | 328 | 7.0 | 13.0 | 0.00 | 0.00 | 0.00 | 81 | 1011.1 |
| 20260505024728 | 55 | 325 | 8.0 | 12.0 | 0.00 | 0.00 | 0.00 | 80 | 1011.1 |
| 20260505024145 | 55 | 322 | 8.0 | 13.0 | 0.00 | 0.00 | 0.00 | 80 | 1011.1 |
| 20260505023803 | 55 | 326 | 8.0 | 13.0 | 0.00 | 0.00 | 0.00 | 80 | 1011.2 |
| 20260505022636 | 55 | 320 | 7.0 | 13.0 | 0.00 | 0.00 | 0.00 | 81 | 1011.2 |
| 20260505021602 | 56 | 317 | 7.0 | 13.0 | 0.00 | 0.00 | 0.00 | 80 | 1011.3 |
| 20260505021331 | 56 | 331 | 6.0 | 11.0 | 0.00 | 0.00 | 0.00 | 80 | 1011.5 |
| 20260505021150 | 56 | 321 | 7.0 | 12.0 | 0.00 | 0.00 | 0.00 | 80 | 1011.4 |
| 20260505020107 | 56 | 323 | 5.0 | 11.0 | 0.00 | 0.00 | 0.00 | 80 | 1011.6 |
| 20260505015743 | 56 | 324 | 6.0 | 10.0 | 0.00 | 0.00 | 0.00 | 80 | 1011.4 |
| 20260505015633 | 56 | 317 | 5.0 | 10.0 | 0.00 | 0.00 | 0.00 | 80 | 1011.5 |
| 20260505014604 | 56 | 317 | 5.0 | 10.0 | 0.00 | 0.00 | 0.00 | 80 | 1011.4 |
| 20260505014557 | 56 | 305 | 2.0 | 5.0 | 0.00 | 0.00 | 0.00 | 79 | 1011.6 |
| 20260505014552 | 56 | 329 | 1.0 | 5.0 | 0.00 | 0.00 | 0.00 | 79 | 1011.7 |
| 20260505014211 | 56 | 326 | 2.0 | 8.0 | 0.00 | 0.00 | 0.00 | 80 | 1011.5 |
| 20260505012602 | 57 | 315 | 0.0 | 5.0 | 0.00 | 0.00 | 0.00 | 78 | 1011.8 |
| 20260505012103 | 57 | 327 | 0.0 | 2.0 | 0.00 | 0.00 | 0.00 | 77 | 1011.8 |
| 20260505011559 | 57 | 327 | 0.0 | 3.0 | 0.00 | 0.00 | 0.00 | 77 | 1011.9 |
| 20260505011102 | 57 | 327 | 1.0 | 7.0 | 0.00 | 0.00 | 0.00 | 77 | 1011.9 |
| 20260505010558 | 57 | 326 | 3.0 | 9.0 | 0.00 | 0.00 | 0.00 | 77 | 1011.8 |
| 20260505010337 | 57 | 322 | 2.0 | 7.0 | 0.00 | 0.00 | 0.00 | 77 | 1011.8 |
| 20260505010151 | 57 | 328 | 3.0 | 9.0 | 0.00 | 0.00 | 0.00 | 77 | 1011.7 |
| 20260505005227 | 58 | 324 | 5.0 | 9.0 | 0.00 | 0.00 | 0.00 | 76 | 1011.9 |
| 20260505004306 | 58 | 320 | 6.0 | 11.0 | 0.00 | 0.00 | 0.00 | 76 | 1011.8 |
| 20260505004139 | 58 | 331 | 5.0 | 10.0 | 0.00 | 0.00 | 0.00 | 76 | 1011.8 |
| 20260505003417 | 58 | 340 | 6.0 | 12.0 | 0.00 | 0.00 | 0.00 | 75 | 1011.9 |
| 20260505003131 | 58 | 332 | 6.0 | 12.0 | 0.00 | 0.00 | 0.00 | 75 | 1011.8 |